• Em Portugal
  • Lista de países
  • Para 7 dias
  • Temperatura da água
  • Mapas de satélite
  • Mapa do tempo
  • Widgets de tempo
  • user-avatar
    Iniciar Sessão

    Previsão horária em Rundu

    Hoje, 22 Janeiro, Segunda-feira

    Tempo Temperatura Precipitação Vento Pressão Humidade
    00:00 +25°C° 0 mm 1 m/s 666 mmHg 54%
    01:00 +24°C° 0 mm 1 m/s 666 mmHg 58%
    02:00 +24°C° 0 mm 1 m/s 665 mmHg 61%
    03:00 +23°C° 0 mm 1 m/s 665 mmHg 64%
    04:00 +23°C° 0 mm 1 m/s 665 mmHg 67%
    05:00 +24°C° 0 mm 1 m/s 666 mmHg 64%
    06:00 +25°C° 0 mm 1 m/s 666 mmHg 61%
    07:00 +26°C° 0 mm 1 m/s 667 mmHg 58%
    08:00 +29°C° 0 mm 1 m/s 667 mmHg 49%
    09:00 +32°C° 0 mm 2 m/s 667 mmHg 39%
    10:00 +36°C° 0 mm 2 m/s 668 mmHg 30%
    11:00 +35°C° 0 mm 2 m/s 667 mmHg 29%
    12:00 +35°C° 0 mm 3 m/s 667 mmHg 29%
    13:00 +35°C° 0 mm 3 m/s 666 mmHg 28%
    14:00 +35°C° 0 mm 3 m/s 666 mmHg 28%
    15:00 +35°C° 0 mm 3 m/s 666 mmHg 28%
    16:00 +35°C° 0 mm 3 m/s 665 mmHg 28%
    17:00 +33°C° 0 mm 3 m/s 665 mmHg 33%
    18:00 +31°C° 0 mm 2 m/s 665 mmHg 38%
    19:00 +29°C° 0 mm 2 m/s 665 mmHg 43%
    20:00 +28°C° 0 mm 2 m/s 665 mmHg 45%
    21:00 +27°C° 0 mm 2 m/s 665 mmHg 48%
    22:00 +26°C° 0 mm 1 m/s 666 mmHg 50%
    23:00 +25°C° 0 mm 1 m/s 665 mmHg 53%

    Amanhã, 23 Janeiro, Terça-feira

    Tempo Temperatura Precipitação Vento Pressão Humidade
    00:00 +25°C° 0 mm 1 m/s 665 mmHg 56%
    01:00 +24°C° 0 mm 1 m/s 665 mmHg 58%
    02:00 +24°C° 0,1 mm 1 m/s 665 mmHg 60%
    03:00 +23°C° 0,1 mm 1 m/s 664 mmHg 61%
    04:00 +23°C° 0,1 mm 1 m/s 664 mmHg 63%
    05:00 +24°C° 0,4 mm 1 m/s 665 mmHg 62%
    06:00 +24°C° 0,4 mm 1 m/s 665 mmHg 62%
    07:00 +25°C° 0,4 mm 1 m/s 666 mmHg 62%
    08:00 +27°C° 0,2 mm 2 m/s 666 mmHg 54%
    09:00 +30°C° 0,2 mm 2 m/s 667 mmHg 47%
    10:00 +33°C° 0,2 mm 3 m/s 667 mmHg 40%
    11:00 +34°C° 0 mm 2 m/s 667 mmHg 37%
    12:00 +34°C° 0 mm 2 m/s 666 mmHg 34%
    13:00 +34°C° 0 mm 1 m/s 665 mmHg 32%
    14:00 +34°C° 0 mm 1 m/s 665 mmHg 32%
    15:00 +33°C° 0 mm 1 m/s 664 mmHg 33%
    16:00 +33°C° 0 mm 1 m/s 664 mmHg 34%
    17:00 +31°C° 0 mm 1 m/s 664 mmHg 38%
    18:00 +30°C° 0 mm 1 m/s 664 mmHg 42%
    19:00 +28°C° 0 mm 1 m/s 664 mmHg 46%
    20:00 +27°C° 0 mm 1 m/s 664 mmHg 48%
    21:00 +27°C° 0 mm 1 m/s 665 mmHg 51%
    22:00 +26°C° 0 mm 1 m/s 665 mmHg 53%
    23:00 +25°C° 0 mm 2 m/s 665 mmHg 55%

    Depois de amanhã, 24 Janeiro, Quarta-feira

    Tempo Temperatura Precipitação Vento Pressão Humidade
    00:00 +25°C° 0 mm 2 m/s 665 mmHg 58%
    01:00 +25°C° 0 mm 2 m/s 665 mmHg 60%
    02:00 +24°C° 0,7 mm 3 m/s 664 mmHg 67%
    03:00 +22°C° 0,7 mm 3 m/s 664 mmHg 74%
    04:00 +21°C° 0,7 mm 4 m/s 664 mmHg 80%
    05:00 +21°C° 0,7 mm 4 m/s 665 mmHg 80%
    06:00 +21°C° 0,7 mm 4 m/s 665 mmHg 79%
    07:00 +22°C° 0,7 mm 4 m/s 666 mmHg 78%
    08:00 +25°C° 0 mm 4 m/s 666 mmHg 69%
    09:00 +27°C° 0 mm 4 m/s 667 mmHg 61%
    10:00 +29°C° 0 mm 4 m/s 667 mmHg 52%
    11:00 +31°C° 0 mm 3 m/s 667 mmHg 45%
    12:00 +34°C° 0 mm 2 m/s 667 mmHg 37%
    13:00 +36°C° 0 mm 2 m/s 666 mmHg 30%
    14:00 +35°C° 0 mm 1 m/s 666 mmHg 30%
    15:00 +34°C° 0 mm 1 m/s 665 mmHg 30%
    16:00 +33°C° 0 mm 1 m/s 665 mmHg 30%
    17:00 +32°C° 0 mm 1 m/s 665 mmHg 34%
    18:00 +30°C° 0 mm 1 m/s 665 mmHg 38%
    19:00 +28°C° 0 mm 1 m/s 665 mmHg 42%
    20:00 +27°C° 0 mm 1 m/s 665 mmHg 44%
    21:00 +27°C° 0 mm 1 m/s 666 mmHg 47%
    22:00 +26°C° 0 mm 2 m/s 666 mmHg 50%
    23:00 +25°C° 0 mm 1 m/s 665 mmHg 54%

    25 Janeiro, Quinta-feira

    Tempo Temperatura Precipitação Vento Pressão Humidade
    00:00 +24°C° 0 mm 1 m/s 665 mmHg 57%
    01:00 +23°C° 0 mm 1 m/s 664 mmHg 61%
    02:00 +23°C° 0,1 mm 1 m/s 664 mmHg 62%
    03:00 +23°C° 0,1 mm 1 m/s 664 mmHg 64%
    04:00 +22°C° 0,1 mm 1 m/s 664 mmHg 65%
    05:00 +23°C° 0,1 mm 1 m/s 665 mmHg 64%
    06:00 +24°C° 0,1 mm 1 m/s 665 mmHg 62%
    07:00 +25°C° 0,1 mm 1 m/s 666 mmHg 61%
    08:00 +28°C° 0,1 mm 2 m/s 667 mmHg 53%
    09:00 +30°C° 0,1 mm 2 m/s 667 mmHg 44%
    10:00 +34°C° 0,1 mm 2 m/s 668 mmHg 36%
    11:00 +34°C° 0 mm 2 m/s 667 mmHg 35%
    12:00 +34°C° 0 mm 1 m/s 667 mmHg 33%
    13:00 +34°C° 0 mm 1 m/s 666 mmHg 31%
    14:00 +34°C° 0 mm 1 m/s 665 mmHg 32%
    15:00 +34°C° 0 mm 1 m/s 665 mmHg 33%
    16:00 +33°C° 0 mm 1 m/s 665 mmHg 34%
    17:00 +32°C° 0,2 mm 1 m/s 665 mmHg 39%
    18:00 +30°C° 0,2 mm 2 m/s 665 mmHg 44%
    19:00 +28°C° 0,2 mm 2 m/s 665 mmHg 49%
    20:00 +27°C° 0,4 mm 1 m/s 665 mmHg 55%
    21:00 +26°C° 0,4 mm 1 m/s 665 mmHg 60%
    22:00 +25°C° 0,4 mm 1 m/s 665 mmHg 65%
    23:00 +24°C° 0 mm 1 m/s 665 mmHg 67%

    26 Janeiro, Sexta-feira

    Tempo Temperatura Precipitação Vento Pressão Humidade
    00:00 +24°C° 0 mm 1 m/s 664 mmHg 68%
    01:00 +21°C° 0 mm 0 m/s 664 mmHg 70%
    02:00 +23°C° 0 mm 1 m/s 664 mmHg 70%
    03:00 +23°C° 0 mm 1 m/s 664 mmHg 71%
    04:00 +23°C° 0 mm 1 m/s 664 mmHg 72%
    05:00 +23°C° 0,1 mm 1 m/s 665 mmHg 71%
    06:00 +24°C° 0,1 mm 1 m/s 665 mmHg 70%
    07:00 +25°C° 0,1 mm 1 m/s 666 mmHg 68%
    08:00 +28°C° 0 mm 1 m/s 667 mmHg 58%
    09:00 +30°C° 0 mm 1 m/s 667 mmHg 48%
    10:00 +34°C° 0 mm 2 m/s 668 mmHg 37%
    11:00 +35°C° 0 mm 2 m/s 667 mmHg 35%
    12:00 +35°C° 0 mm 2 m/s 667 mmHg 33%
    13:00 +35°C° 0 mm 2 m/s 666 mmHg 31%
    14:00 +35°C° 0 mm 2 m/s 666 mmHg 32%
    15:00 +35°C° 0 mm 2 m/s 665 mmHg 32%
    16:00 +35°C° 0 mm 2 m/s 665 mmHg 33%
    17:00 +32°C° 0 mm 2 m/s 665 mmHg 37%
    18:00 +31°C° 0 mm 2 m/s 665 mmHg 40%
    19:00 +29°C° 0 mm 1 m/s 665 mmHg 44%
    20:00 +28°C° 0,1 mm 1 m/s 665 mmHg 47%
    21:00 +27°C° 0,1 mm 1 m/s 665 mmHg 50%
    22:00 +27°C° 0,1 mm 1 m/s 665 mmHg 52%
    23:00 +26°C° 0 mm 1 m/s 665 mmHg 55%

    27 Janeiro, Sábado

    Tempo Temperatura Precipitação Vento Pressão Humidade
    00:00 +25°C° 0 mm 1 m/s 664 mmHg 57%
    01:00 +25°C° 0 mm 1 m/s 664 mmHg 59%
    02:00 +24°C° 0,1 mm 1 m/s 664 mmHg 61%
    03:00 +24°C° 0,1 mm 1 m/s 664 mmHg 64%
    04:00 +23°C° 0,1 mm 1 m/s 664 mmHg 66%
    05:00 +24°C° 0,5 mm 1 m/s 665 mmHg 67%
    06:00 +24°C° 0,5 mm 1 m/s 665 mmHg 68%
    07:00 +25°C° 0,5 mm 1 m/s 666 mmHg 68%
    08:00 +28°C° 0 mm 1 m/s 667 mmHg 58%
    09:00 +31°C° 0 mm 1 m/s 667 mmHg 48%
    10:00 +34°C° 0 mm 1 m/s 668 mmHg 38%
    11:00 +35°C° 0 mm 2 m/s 667 mmHg 36%
    12:00 +35°C° 0 mm 2 m/s 667 mmHg 34%
    13:00 +36°C° 0 mm 3 m/s 666 mmHg 33%
    14:00 +35°C° 0 mm 3 m/s 666 mmHg 35%
    15:00 +34°C° 0 mm 3 m/s 665 mmHg 36%
    16:00 +34°C° 0 mm 3 m/s 665 mmHg 38%
    17:00 +31°C° 0 mm 2 m/s 665 mmHg 43%
    18:00 +30°C° 0 mm 2 m/s 665 mmHg 47%
    19:00 +28°C° 0 mm 2 m/s 665 mmHg 52%
    20:00 +27°C° 0,2 mm 2 m/s 665 mmHg 57%
    21:00 +26°C° 0,2 mm 2 m/s 665 mmHg 63%
    22:00 +25°C° 0,2 mm 3 m/s 665 mmHg 69%
    23:00 +24°C° 0,3 mm 2 m/s 665 mmHg 75%
    Mostrar mais